#timestamp,LO_Frequency,Hit,StdDev 
1509213615.1,286047000.0,N
1509213616.0,286047000.0,N
1509213635.8,286047002.3,N
1509213655.7,286047001.6,N
1509213675.5,286047002.3,N
1509213695.3,286047002.6,N
1509213715.2,286047001.4,N
1509213735.0,286047002.7,N
1509213735.9,286047002.7,N
1509213755.7,286046999.9,N
1509213775.6,286046998.4,N
1509213795.4,286046999.4,N
1509213815.3,286046998.4,N
1509213835.1,286047001.2,N
1509213855.8,286046999.1,N
1509213875.7,286046998.7,N
1509213895.5,286046998.1,N
1509213915.4,286046998.9,N
1509213935.2,286047000.5,N
1509213955.0,286047001.2,N
1509213955.9,286047001.2,N
1509213975.8,286046998.6,N
1509213995.6,286046999.4,N
1509214015.4,286046999.1,N
1509214035.3,286046999.0,N
1509214055.1,286046999.2,N
1509214075.9,286046999.5,N
1509214095.7,286047000.4,N
1509214115.5,286047000.7,N
1509214135.4,286046998.6,N
1509214155.2,286046999.0,N
1509214175.1,286046998.2,N
1509214176.0,286046998.2,N
1509214195.8,286046999.8,N
1509214215.6,286047002.8,N
1509214235.5,286047000.5,N
1509214255.3,286047000.6,N
1509214275.1,286047000.1,N
1509214295.9,286046999.7,N
1509214315.7,286047000.1,N
1509214335.6,286046999.0,N
1509214355.4,286046996.8,N
1509214375.2,286046999.6,N
1509214395.1,286046999.5,N
1509214396.0,286046999.5,N
1509214415.8,286046998.1,N
1509214435.7,286047001.2,N
1509214455.5,286047000.3,N
1509214475.3,286047000.3,N
1509214495.2,286047001.1,N
1509214515.0,286046998.1,N
1509214515.9,286046998.1,N
1509214535.8,286046999.4,N
1509214555.6,286046998.9,N
1509214575.4,286046998.7,N
1509214595.3,286047002.6,N
1509214615.1,286047000.1,N
1509214635.9,286047002.3,N
1509214655.7,286047000.2,N
1509214675.5,286047000.2,N
1509214695.4,286047002.4,N
1509214715.2,286047000.7,N
1509214735.0,286046998.2,N
1509214735.9,286046998.2,N
1509214755.8,286047001.1,N
1509214775.6,286047000.8,N
1509214795.5,286046998.3,N
1509214815.3,286046998.7,N
1509214835.1,286046999.9,N
1509214855.9,286046998.5,N
1509214875.7,286046999.1,N
1509214895.6,286047000.5,N
1509214915.4,286046999.8,N
1509214935.2,286047000.2,N
1509214955.1,286047000.7,N
1509214956.0,286047000.7,N
1509214975.8,286047000.7,N
1509214995.6,286047000.9,N
1509215015.5,286047002.6,N
1509215035.3,286046999.9,N
1509215055.2,286046998.8,N
1509215075.9,286047000.5,N
1509215095.7,286047000.9,N
1509215115.6,286047000.4,N
1509215135.4,286047001.0,N
1509215155.3,286046999.9,N
1509215175.1,286046998.5,N
1509215176.0,286046998.5,N
1509215195.8,286046998.3,N
1509215215.7,286047000.9,N
1509215235.5,286046999.1,N
1509215255.3,286046999.3,N
1509215275.2,286046998.3,N
1509215295.0,286047000.0,N
1509215295.9,286047000.0,N
1509215315.8,286047000.8,N
1509215335.6,286046998.2,N
1509215355.4,286046998.1,N
1509215375.3,286047001.1,N
1509215395.1,286046999.1,N
1509215415.9,286046999.7,N
1509215435.7,286047002.2,N
1509215455.5,286047002.3,N
1509215475.4,286047000.0,N
1509215495.2,286047000.8,N
1509215515.0,286046998.9,N
1509215515.9,286046998.9,N
1509215535.8,286046999.4,N
1509215555.6,286046997.0,N
1509215575.5,286046999.0,N
1509215595.3,286046998.6,N
1509215615.1,286046999.9,N
1509215635.9,286047000.5,N
1509215655.7,286047002.7,N
1509215675.6,286047000.3,N
1509215695.4,286046999.9,N
1509215715.2,286047000.6,N
1509215735.1,286046998.8,N
1509215736.0,286046998.8,N
1509215755.8,286046998.7,N
1509215775.7,286046998.1,N
1509215795.5,286046998.5,N
1509215815.3,286046998.8,N
1509215835.2,286046996.7,N
1509215855.0,286046998.1,N
1509215855.9,286046998.1,N
1509215875.7,286046999.3,N
1509215895.6,286046999.0,N
1509215915.4,286046998.9,N
1509215935.3,286046999.1,N
1509215955.1,286046998.2,N
1509215956.0,286046998.2,N
1509215975.8,286046999.3,N
1509215995.7,286047001.2,N
1509216015.5,286046998.6,N
1509216035.4,286047001.1,N
1509216055.2,286047001.2,N
1509216075.0,286047001.0,N
1509216075.9,286047001.0,N
1509216095.8,286046996.6,N
1509216115.6,286047002.4,N
1509216135.4,286047000.1,N
1509216155.3,286047002.8,N
1509216175.1,286047003.8,N
1509216195.9,286047001.8,N
1509216215.7,286047002.7,N
1509216235.5,286047000.0,N
1509216255.4,286046999.8,N
1509216275.2,286047000.0,N
1509216295.1,286047001.6,N
1509216296.0,286047001.6,N
1509216315.8,286047002.6,N
1509216335.6,286047002.6,N
1509216355.5,286047004.3,N
1509216375.3,286047004.3,N
1509216395.2,286047003.5,N
1509216415.9,286047005.6,N
1509216435.7,286047003.7,N
1509216455.6,286047004.3,N
1509216475.4,286047004.2,N
1509216495.2,286047001.4,N
1509216515.1,286047001.0,N
1509216516.0,286047001.0,N
1509216535.8,286047000.5,N
1509216555.7,286046999.9,N
1509216575.5,286047000.9,N
1509216595.3,286047000.9,N
1509216615.2,286047000.4,N
1509216635.0,286047002.8,N
1509216635.9,286047002.8,N
1509216655.8,286047002.8,N
1509216675.6,286047002.1,N
1509216695.4,286047001.8,N
1509216715.3,286047004.4,N
1509216735.1,286047003.8,N
1509216755.9,286047003.9,N
1509216775.7,286047004.0,N
1509216795.5,286047001.6,N
1509216815.4,286047001.4,N
1509216835.2,286047002.3,N
1509216855.0,286047004.3,N
1509216855.9,286047004.3,N
1509216875.8,286047001.3,N
1509216895.6,286047001.3,N
1509216915.5,286047004.0,N
1509216935.3,286047004.4,N
1509216955.1,286047001.4,N
1509216975.9,286047003.2,N
1509216995.7,286047004.2,N
1509217015.5,286047002.2,N
1509217035.4,286047001.6,N
1509217055.2,286047001.4,N
1509217075.1,286047002.4,N
1509217076.0,286047002.4,N
1509217095.8,286047004.4,Y
1509217115.6,286047000.1,P
1509217135.5,286046999.9,N
1509217155.3,286046999.9,N
1509217175.2,286047001.1,N
1509217195.9,286047001.2,N
